Regional Weather Roundup
Issued by NWS

Home | Current Version | Previous Version | Graphics & Text | Print | Product List | Glossary Off
Versions: 1 2 3 4 5 6 7 8 9 10 11 12 13 14 15 16 17 18 19 20 21 22 23 24 25 26 27 28 29 30 31 32 33 34 35 36 37 38 39 40 41 42 43 44 45 46 47 48 49 50

000
ASUS43 KTOP 220659
RWRKS

WEATHER ROUNDUP FOR KANSAS
NATIONAL WEATHER SERVICE GOODLAND KS
200 AM CDT SUN APR 22 2018

NOTE:  "FAIR" INDICATES FEW OR NO CLOUDS BELOW 12,000 FEET WITH NO
SIGNIFICANT WEATHER AND/OR OBSTRUCTIONS TO VISIBILITY.

KSZ001>006-013>018-027>032-041>047-220800-
NORTHWEST KANSAS

CITY           SKY/WX    TMP DP  RH WIND       PRES   REMARKS
GOODLAND       CLOUDY    39  38  96 CALM      30.21S
HAYS           CLOUDY    42  41  96 N9        30.20F
HILL CITY      CLOUDY    41  41 100 N5        30.22F
RUSSELL        CLOUDY    43  43 100 N9        30.18F FOG
$$

KSZ061>065-074>080-084>089-220800-
SOUTHWEST KANSAS

CITY           SKY/WX    TMP DP  RH WIND       PRES   REMARKS
DODGE CITY     CLOUDY    42  40  92 N16       30.18F FOG
GARDEN CITY    LGT RAIN  41  40  96 N10       30.20S
LIBERAL        CLOUDY    41  40  96 N8        30.21S
$$

KSZ066>073-081>083-090>101-220800-
SOUTHEAST KANSAS

CITY           SKY/WX    TMP DP  RH WIND       PRES   REMARKS
CHANUTE        LGT RAIN  48  46  93 N9        30.07F FOG
COFFEYVILLE    LGT RAIN  48  47  96 NW13      30.04F FOG
HUTCHINSON     CLOUDY    44  43  96 N13       30.13F
MEDICINE LODGE   N/A     42  41  96 N8        30.13F
NEWTON         LGT RAIN  43  42  97 N12       30.12F
PARSONS        RAIN      48  47  96 N9        30.06F FOG
WICHITA INTL   LGT RAIN  46  45  96 N12       30.11F
WICHITA JABRA  LGT RAIN  44  44 100 N13       30.11F
WICHITA MCCONL LGT RAIN  45  45  99 N12       30.10
WINFIELD       CLOUDY    45  45 100 N10       30.10F
$$

KSZ007>012-019>026-033>040-048>060-102>105-220800-
NORTHEAST KANSAS

CITY           SKY/WX    TMP DP  RH WIND       PRES   REMARKS
CONCORDIA      CLOUDY    43  41  93 NW8       30.17F
EMPORIA        LGT RAIN  45  43  93 N6        30.10F
LAWRENCE       CLOUDY    54  31  41 NE14      30.11F
MANHATTAN      CLOUDY    47  42  83 N5        30.14F
OLATHE IND     CLOUDY    53  32  44 N9        30.10F
OLATHE EXE     CLOUDY    53  30  41 NE9       30.09F
SALINA         CLOUDY    45  43  93 N9        30.16F
TOPEKA BILLARD LGT RAIN  51  36  56 NE7       30.13R
TOPEKA FORBES  CLOUDY    50  41  71 N7        30.12S
$$



USA.gov is the U.S. government's official web portal to all federal, state and local government web resources and services.